Regional Weather Roundup
Issued by NWS Little Rock, AR

Home | Current Version | Previous Version | Text Only | Print | Product List | Glossary On
Versions: 1 2 3 4 5 6 7 8 9 10 11 12 13 14 15 16 17 18 19 20 21 22 23 24 25 26 27 28 29 30 31 32 33 34 35 36 37 38 39 40 41 42 43 44 45 46 47 48 49 50
000
ASUS44 KLZK 191105
RWRLZK

WEATHER ROUNDUP FOR ARKANSAS
NATIONAL WEATHER SERVICE LITTLE ROCK AR
500 AM CST FRI DEC 19 2014

NOTE: "FAIR" INDICATES FEW OR NO CLOUDS BELOW 12,000 FEET WITH NO
SIGNIFICANT WEATHER AND/OR OBSTRUCTIONS TO VISIBILITY.

ARZ001-003-010-029-191200-
NORTHWEST ARKANSAS

CITY           SKY/WX    TMP DP  RH WIND       PRES   REMARKS
FAYETTEVILLE   CLOUDY    40  39  97 CALM      30.19R FOG
FORT SMITH     CLOUDY    41  38  89 E5        30.21S
HARRISON       CLOUDY    36  36 100 SE6       30.19R FOG
BENTONVILLE    CLOUDY    39  37  93 E3        30.19R
ROGERS         CLOUDY    38  38 100 E3        30.19R
SILOAM SPGS    CLOUDY    39  34  81 CALM      30.21R VSB 3/4
HIGHFILL       FOG       39  39 100 N3        30.18R VSB 1/2
$$

ARZ004-005-016-191200-
NORTH CENTRAL ARKANSAS

CITY           SKY/WX    TMP DP  RH WIND       PRES   REMARKS
BATESVILLE     CLOUDY    39  36  87 CALM      30.24R
FLIPPIN        CLOUDY    37  34  87 SE3       30.22R
MTN HOME       CLOUDY    37  36  96 VRB3      30.20R
$$

ARZ040-041-191200-
WEST CENTRAL ARKANSAS

CITY           SKY/WX    TMP DP  RH WIND       PRES   REMARKS
MENA           CLOUDY    43  41  93 E5        30.17F
MOUNT IDA      CLOUDY    40  38  93 CALM      30.16S FOG
$$

ARZ009-017-025-026-028-191200-
NORTHEAST ARKANSAS

CITY           SKY/WX    TMP DP  RH WIND       PRES   REMARKS
CORNING        CLOUDY    36  34  93 NE8       30.26R FOG
JONESBORO      CLOUDY    37  35  92 NE9       30.24S
NEWPORT        CLOUDY    39  37  92 NE6       30.26R
WALNUT RIDGE   CLOUDY    37  32  81 NE10      30.23S
BLYTHEVILLE    CLOUDY    38  35  89 NE8       30.24S
$$

ARZ022-023-033-042-044-191200-
CENTRAL ARKANSAS

CITY           SKY/WX    TMP DP  RH WIND       PRES   REMARKS
LITTLE ROCK    CLOUDY    42  38  85 NE6       30.23R
N LITTLE ROCK    N/A     40  40  99 NE6       30.23R
JACKSONVILLE   CLOUDY    41  38  91 NE6       30.23R
SEARCY         CLOUDY    40  38  93 NE7       30.25R
HOT SPRINGS    CLOUDY    40  39  97 NE6       30.20R FOG
RUSSELLVILLE   CLOUDY    41  38  89 SE5       30.22S
CLINTON        CLOUDY    39  37  93 CALM      30.25R FOG
$$

ARZ036-191200-
EAST ARKANSAS

CITY           SKY/WX    TMP DP  RH WIND       PRES   REMARKS
WEST MEMPHIS   CLOUDY    41  39  93 NE6       30.22R
$$

ARZ050-053-066-070-073-191200-
SOUTHWEST ARKANSAS

CITY           SKY/WX    TMP DP  RH WIND       PRES   REMARKS
ARKADELPHIA    CLOUDY    42  42 100 NE7       30.20F FOG
CAMDEN         CLOUDY    43  39  87 MISG      30.17F FOG
TEXARKANA      CLOUDY    43  42  97 NE9       30.15F FOG
EL DORADO      CLOUDY    45  43  93 NE9       30.16F
DE QUEEN       CLOUDY    44  43  96 E7        30.15F FOG
$$

ARZ056-057-069-191200-
SOUTHEAST ARKANSAS

CITY           SKY/WX    TMP DP  RH WIND       PRES   REMARKS
PINE BLUFF     CLOUDY    42  38  85 NE9       30.20F
STUTTGART      CLOUDY    41  37  87 N6        30.23R
MONTICELLO     CLOUDY    43  40  89 NE7       30.18S

$$




USA.gov is the U.S. government's official web portal to all federal, state and local government web resources and services.